User: anonymous   Login
Location: Unspecified
(0.0000°N, 0.0000°E)
Time: 04:30:48
(UTC+00:00)
Language:

STARLINK-6365 - Orbit

View from above orbital plane
View from above orbital plane
View from above satellite
View from above satellite

Ground track
Ground track

The orbit is defined by the following mean orbital elements,

1 57237U          26145.49508157 +.00000000 +00000-0 -48581-4 0 00005
2 57237  43.0025 316.8092 0001249 267.8326  92.2383 15.27568600    06
Epoch (UTC): 25 May 2026 11:52:55
Eccentricity: 0.0001249
inclination: 43.0025°
perigee height: 482 km
apogee height: 484 km
right ascension of ascending node: 316.8092°
argument of perigee: 267.8326°
revolutions per day: 15.27568600
mean anomaly at epoch: 92.2383°

The dashed part of the orbit path shows where the satellite is in the earth's shadow,  

DLR